[[{"header":{"parameterUnit":"m.s-1","parameterCategory":1,"la1":30.2991,"la2":30.254,"lo1":-89.0895,"lo2":-89.0444,"dy":0.0017,"dx":0.0017,"nx":28,"ny":28,"refTime":"2023-11-22T09:00:00:Z","depth":0,"parameterNumber":2,"parameterNumberName":"U-component_of_WINDS"},"data":[0,0,0,0,0,0,0,0,0,0,0,0,0,0,0,0,0,0,0,0,0,0,0,0,0,0,0,0,0,0,0,0,0,0,0,0,0,0,0,0,0,0,0,0,0,0,0,0,0,0,0,0,0,0,0,0,0,0,3.3683,3.3683,0,3.37,3.3701,3.3701,3.3655,3.3653,3.3652,3.3651,3.3667,3.3669,3.367,0,0,0,0,0,0,0,0,0,0,0,0,0,3.3611,3.3612,3.3683,3.3683,3.3684,3.37,3.3701,3.3701,3.3655,3.3653,3.3652,3.365,3.3666,3.3668,3.3671,0,0,0,0,0,0,0,0,0,0,0,0,0,3.3637,3.3613,3.3683,3.3663,3.3661,3.37,3.3701,3.3701,3.3655,3.3653,3.3651,3.3649,3.3666,3.3668,3.3671,3.373,0,0,3.3679,3.368,0,0,0,0,0,0,0,0,3.3635,3.3639,3.3666,3.3664,3.3663,3.3673,3.3681,3.3711,3.3656,3.3658,3.3651,3.3648,3.3671,3.3673,3.3681,3.3731,3.3731,3.3679,3.3681,3.3682,3.3683,0,0,0,0,0,0,0,3.3633,3.3638,3.369,3.3666,3.3664,3.3653,3.3654,3.3686,3.3676,3.3657,3.3654,3.3657,3.3669,3.3678,3.3681,3.3732,3.3679,3.3681,3.3683,3.3684,3.3833,3.3835,0,0,0,0,0,0,3.3634,3.3637,3.3689,3.369,3.3643,3.3656,3.3657,3.3672,3.3675,3.3674,3.3659,3.3655,3.3675,3.3678,3.3681,3.3751,3.3682,3.3684,3.3686,3.383,3.3833,3.3836,0,0,0,0,0,0,3.3633,3.3639,3.3689,3.3663,3.3668,3.366,3.3676,3.3673,3.3682,3.3676,3.3674,3.3669,3.3673,3.3677,3.3719,3.3751,3.3686,3.3688,3.3828,3.3831,3.3834,3.3891,0,0,0,0,0,0,3.3631,3.3639,3.3661,3.3664,3.367,3.3726,3.3678,3.3675,3.3687,3.3682,3.3686,3.3685,3.3672,3.3715,3.3721,3.3753,3.369,3.3825,3.3829,3.3833,3.3887,3.3896,3.3905,0,0,0,0,0,3.3629,3.3676,3.3663,3.3669,3.3698,3.3728,3.3731,3.3716,3.369,3.3712,3.3709,3.3685,3.3747,3.372,3.3726,3.376,3.3822,3.3828,3.3833,3.3882,3.3895,3.3905,0,0,0,0,0,0,3.3677,3.3676,3.3661,3.3711,3.372,3.372,3.3747,3.3729,3.3745,3.374,3.372,3.3721,3.3766,3.3767,3.3737,3.3818,3.378,3.3787,3.3815,3.3827,3.3836,3.3834,3.3692,0,0,0,0,0,3.3693,3.3718,3.3716,3.376,3.3766,3.3756,3.3769,3.3757,3.3765,3.3768,3.3768,3.3777,3.3798,3.3813,3.3832,3.3887,3.3888,3.3914,3.3923,3.393,3.3936,3.3966,3.3978,3.3853,3.3853,3.3853,0,0,3.3727,3.373,3.3747,3.377,3.3776,3.3802,3.376,3.3789,3.3808,3.3772,3.3811,3.3812,3.3821,3.3869,3.389,3.3871,3.3971,3.3937,3.3943,3.3945,3.3973,3.3985,3.3995,3.3857,3.3856,3.3856,0,0,3.3803,3.3807,3.3845,3.3852,3.3862,3.3855,3.3865,3.3868,3.3867,3.3906,3.3881,3.3904,3.3941,3.3949,3.3957,3.4039,3.4017,3.4046,3.4093,3.4123,3.4132,3.4141,3.417,3.4181,3.4052,3.4052,3.4052,0,3.3843,3.3882,3.3866,3.3898,3.391,3.388,3.3918,3.3926,3.3941,3.3949,3.3928,3.3976,3.3979,3.403,3.405,3.4058,3.4068,3.4044,3.4132,3.4141,3.4149,3.4176,3.4187,3.4055,3.4055,3.4054,3.4054,0,3.3932,3.396,3.3989,3.4006,3.4021,3.4056,3.4045,3.4062,3.405,3.4046,3.4087,3.4091,3.4111,3.4122,3.4109,3.4171,3.4159,3.4136,3.4097,3.4164,3.419,3.42,3.406,3.4059,3.4058,3.4057,0,0,3.4036,3.4046,3.4056,3.4064,3.4074,3.4095,3.4129,3.415,3.4165,3.4177,3.4205,3.4239,3.4218,3.4228,3.4216,3.4242,3.4307,3.4215,3.4215,3.4232,3.4376,3.4393,3.4406,3.4293,3.4295,3.4297,3.4375,0,3.4111,3.4169,3.4157,3.4215,3.4241,3.4214,3.4244,3.4253,3.4251,3.4273,3.4271,3.4295,3.4265,3.4271,3.4296,3.4294,3.4335,3.4288,3.4319,3.432,3.4317,3.4419,3.4437,3.4511,3.4385,3.4387,3.4388,0,3.4205,3.4222,3.4282,3.4289,3.43,3.4327,3.4346,3.4367,3.4377,3.4374,3.4387,3.437,3.4405,3.4367,3.4414,3.4382,3.4395,3.4396,3.4399,3.44,3.4358,3.4423,3.4534,3.4545,3.4404,3.4402,3.4401,0,3.4275,3.4313,3.4354,3.4362,3.4371,3.4391,3.4395,3.4404,3.4418,3.4434,3.4443,3.4464,3.4475,3.4491,3.4481,3.4454,3.453,3.4491,3.4528,3.4529,3.4544,3.4543,3.4658,3.4554,3.4553,3.4553,3.4553,0,3.4358,3.4396,3.4386,3.4411,3.4454,3.444,3.4482,3.4484,3.4492,3.4517,3.4496,3.452,3.4506,3.4529,3.4522,3.4562,3.4567,3.4566,3.4563,3.4567,3.4568,3.4574,3.4569,3.4556,3.4555,3.4555,3.4554,0,3.4443,3.4437,3.4481,3.4487,3.4489,3.452,3.4525,3.4549,3.4546,3.4579,3.4586,3.4582,3.4608,3.46,3.4629,3.4624,3.4675,3.4666,3.4672,3.4669,3.4707,3.4703,3.4829,3.4845,3.4731,3.4732,3.4733,0,3.4496,3.4525,3.4535,3.4551,3.4557,3.4583,3.4598,3.4586,3.4602,3.4618,3.464,3.4665,3.4684,3.4728,3.4727,3.4749,3.474,3.4783,3.4743,3.4747,3.4741,3.4739,3.4742,3.4791,3.4792,3.4793,3.4794,0,3.4592,3.4588,3.461,3.4632,3.465,3.4667,3.4681,3.4695,3.4685,3.4704,3.4731,3.4747,3.4777,3.4802,3.4822,3.4827,3.4809,3.4807,3.4816,3.482,3.4822,3.4822,3.4693,3.4803,3.4803,3.4802,3.4801,3.4801,3.4662,3.4687,3.4698,3.4724,3.4734,3.4748,3.4772,3.4773,3.4796,3.4819,3.4811,3.4843,3.4854,3.488,3.4888,3.4913,3.4896,3.491,3.4914,3.4917,3.4922,3.482,3.4916,3.4916,3.4916,3.4915,3.4915,0,3.4756,3.4763,3.4787,3.4808,3.4829,3.4812,3.4827,3.4845,3.4874,3.4886,3.4906,3.4938,3.4963,3.4965,3.4989,3.5008,3.5001,3.5015,3.5013,3.5014,3.4935,3.4924,3.5021,3.5021,3.5021,3.5021,3.502,3.502,3.4808,3.4849,3.4848,3.4894,3.49,3.4932,3.4942,3.4956,3.4966,3.5003,3.5024,3.5026,3.5034,3.5058,3.5081,3.5081,3.509,3.5108,3.5104,3.503,3.502,3.501,3.4999,3.511,3.511,3.5181,3.5182,3.5183]},{"header":{"parameterUnit":"m.s-1","parameterCategory":1,"la1":30.2991,"la2":30.254,"lo1":-89.0895,"lo2":-89.0444,"dy":0.0017,"dx":0.0017,"nx":28,"ny":28,"refTime":"2023-11-22T09:00:00:Z","depth":0,"parameterNumber":3,"parameterNumberName":"V-component_of_WINDS"},"data":[0,0,0,0,0,0,0,0,0,0,0,0,0,0,0,0,0,0,0,0,0,0,0,0,0,0,0,0,0,0,0,0,0,0,0,0,0,0,0,0,0,0,0,0,0,0,0,0,0,0,0,0,0,0,0,0,0,0,-5.11,-5.1101,0,-5.1218,-5.1219,-5.122,-5.1171,-5.1168,-5.1165,-5.1162,-5.1282,-5.1287,-5.1293,0,0,0,0,0,0,0,0,0,0,0,0,0,-5.0831,-5.0837,-5.11,-5.1101,-5.1103,-5.1218,-5.1219,-5.1221,-5.1171,-5.1168,-5.1164,-5.1161,-5.128,-5.1287,-5.1293,0,0,0,0,0,0,0,0,0,0,0,0,0,-5.0949,-5.0838,-5.1099,-5.1092,-5.1092,-5.1217,-5.1219,-5.1221,-5.1172,-5.1167,-5.1163,-5.1159,-5.1277,-5.1286,-5.1294,-5.1434,0,0,-5.1321,-5.1325,0,0,0,0,0,0,0,0,-5.0942,-5.0958,-5.1091,-5.1092,-5.1093,-5.1175,-5.1168,-5.1292,-5.1173,-5.1142,-5.1162,-5.1157,-5.1249,-5.126,-5.1292,-5.1439,-5.1444,-5.1322,-5.1327,-5.1331,-5.1333,0,0,0,0,0,0,0,-5.0934,-5.0953,-5.1146,-5.1093,-5.1095,-5.1082,-5.1094,-5.1192,-5.1218,-5.1144,-5.1141,-5.1155,-5.1249,-5.1283,-5.1294,-5.1446,-5.1322,-5.1329,-5.1335,-5.1338,-5.1716,-5.1721,0,0,0,0,0,0,-5.0926,-5.0947,-5.1143,-5.115,-5.1006,-5.1091,-5.1104,-5.1153,-5.1217,-5.1222,-5.1159,-5.1153,-5.1271,-5.1284,-5.1298,-5.1467,-5.1331,-5.1339,-5.1344,-5.1712,-5.1718,-5.1723,0,0,0,0,0,0,-5.092,-5.0944,-5.1138,-5.1048,-5.1071,-5.11,-5.1155,-5.1158,-5.1192,-5.1228,-5.1232,-5.1189,-5.1268,-5.1286,-5.1401,-5.1471,-5.1343,-5.1351,-5.1706,-5.1714,-5.172,-5.1806,0,0,0,0,0,0,-5.0913,-5.0942,-5.0995,-5.1049,-5.1076,-5.1239,-5.116,-5.1163,-5.1207,-5.12,-5.1257,-5.1263,-5.1266,-5.1388,-5.141,-5.148,-5.1358,-5.17,-5.1709,-5.1718,-5.1797,-5.1815,-5.183,0,0,0,0,0,-5.0903,-5.1013,-5.0998,-5.1022,-5.1143,-5.1243,-5.1259,-5.126,-5.1213,-5.1267,-5.1291,-5.1261,-5.1459,-5.1401,-5.1424,-5.1499,-5.1696,-5.1707,-5.1717,-5.1789,-5.1811,-5.183,0,0,0,0,0,0,-5.0966,-5.102,-5.1004,-5.1135,-5.1185,-5.1234,-5.1302,-5.1283,-5.1347,-5.1338,-5.1336,-5.135,-5.147,-5.1495,-5.1429,-5.1638,-5.157,-5.1586,-5.1617,-5.1638,-5.1655,-5.1647,-5.1365,0,0,0,0,0,-5.0995,-5.1072,-5.1115,-5.1226,-5.1253,-5.1273,-5.1317,-5.1314,-5.1366,-5.1386,-5.1418,-5.1469,-5.1543,-5.1592,-5.1662,-5.18,-5.1813,-5.1863,-5.188,-5.1893,-5.1908,-5.1985,-5.2009,-5.1758,-5.1758,-5.1758,0,0,-5.1056,-5.1095,-5.1143,-5.124,-5.1278,-5.1359,-5.1291,-5.1378,-5.1438,-5.1399,-5.1511,-5.1536,-5.1593,-5.1721,-5.1779,-5.1746,-5.198,-5.1907,-5.1918,-5.1925,-5.1999,-5.2022,-5.2043,-5.1766,-5.1764,-5.1763,0,0,-5.1208,-5.1245,-5.1343,-5.1383,-5.1443,-5.1456,-5.148,-5.1533,-5.1549,-5.1661,-5.1635,-5.1705,-5.1832,-5.1875,-5.1913,-5.2084,-5.206,-5.2106,-5.2195,-5.227,-5.229,-5.2308,-5.237,-5.2393,-5.212,-5.2121,-5.2121,0,-5.1276,-5.1396,-5.1395,-5.1486,-5.153,-5.1499,-5.16,-5.1638,-5.1718,-5.1749,-5.1711,-5.1872,-5.1908,-5.2047,-5.2089,-5.212,-5.2148,-5.21,-5.2287,-5.2305,-5.2321,-5.2381,-5.2405,-5.2126,-5.2125,-5.2125,-5.2124,0,-5.1477,-5.1561,-5.1633,-5.1712,-5.1764,-5.1858,-5.1873,-5.1926,-5.1919,-5.1937,-5.2052,-5.2095,-5.2174,-5.2206,-5.2199,-5.2345,-5.2323,-5.2286,-5.2219,-5.235,-5.2407,-5.243,-5.2134,-5.2132,-5.213,-5.2129,0,0,-5.1672,-5.1751,-5.1777,-5.1814,-5.1878,-5.1943,-5.2037,-5.2115,-5.2162,-5.2217,-5.2297,-5.2406,-5.2374,-5.2417,-5.2415,-5.2481,-5.2617,-5.2436,-5.2438,-5.247,-5.2782,-5.2811,-5.2837,-5.2601,-5.2605,-5.2608,-5.2778,0,-5.183,-5.1995,-5.1999,-5.215,-5.2229,-5.2202,-5.2284,-5.2333,-5.2352,-5.2422,-5.2442,-5.2521,-5.2471,-5.2497,-5.2561,-5.2586,-5.2679,-5.2574,-5.2676,-5.2679,-5.2664,-5.2866,-5.2896,-5.3054,-5.28,-5.2803,-5.2806,0,-5.2037,-5.2102,-5.2261,-5.2317,-5.235,-5.2424,-5.2497,-5.2563,-5.2619,-5.2628,-5.2678,-5.2667,-5.2763,-5.2692,-5.2826,-5.2754,-5.2796,-5.2815,-5.2821,-5.2832,-5.2752,-5.2884,-5.3104,-5.3129,-5.284,-5.2838,-5.2835,0,-5.2166,-5.2292,-5.2405,-5.2436,-5.2503,-5.2556,-5.2586,-5.2638,-5.2685,-5.2749,-5.2781,-5.2854,-5.2896,-5.2953,-5.2963,-5.2909,-5.3098,-5.3027,-5.311,-5.311,-5.3151,-5.3149,-5.3383,-5.3176,-5.3175,-5.3175,-5.3174,0,-5.2343,-5.2443,-5.2464,-5.2533,-5.2644,-5.2647,-5.2757,-5.2783,-5.283,-5.2904,-5.2885,-5.2955,-5.2962,-5.3035,-5.3043,-5.3154,-5.3172,-5.3183,-5.3184,-5.3186,-5.3185,-5.3214,-5.3204,-5.3181,-5.318,-5.3178,-5.3177,0,-5.2506,-5.2524,-5.2645,-5.2699,-5.2715,-5.2795,-5.2841,-5.2908,-5.2926,-5.3021,-5.3043,-5.3072,-5.3157,-5.3172,-5.3271,-5.3276,-5.341,-5.3398,-5.3391,-5.3391,-5.3473,-5.3466,-5.3736,-5.3772,-5.354,-5.3542,-5.3544,0,-5.2619,-5.2695,-5.2758,-5.2807,-5.284,-5.2919,-5.2968,-5.2975,-5.3027,-5.3097,-5.3156,-5.3239,-5.3306,-5.3443,-5.3473,-5.3549,-5.3541,-5.363,-5.3552,-5.3552,-5.3545,-5.3541,-5.355,-5.3646,-5.3648,-5.365,-5.3652,0,-5.2818,-5.2824,-5.2896,-5.2972,-5.3031,-5.3091,-5.3148,-5.3189,-5.3203,-5.3263,-5.335,-5.3402,-5.3505,-5.3588,-5.3665,-5.3696,-5.3678,-5.3676,-5.37,-5.3703,-5.3697,-5.3703,-5.3434,-5.367,-5.3668,-5.3667,-5.3666,-5.3665,-5.2961,-5.3028,-5.3084,-5.3165,-5.3209,-5.3263,-5.3329,-5.3356,-5.3429,-5.3514,-5.3513,-5.361,-5.3665,-5.3766,-5.3803,-5.3878,-5.385,-5.3883,-5.3892,-5.3901,-5.391,-5.3684,-5.3892,-5.3891,-5.3891,-5.389,-5.389,0,-5.3161,-5.3196,-5.3271,-5.3352,-5.3416,-5.3393,-5.3455,-5.3511,-5.3596,-5.3649,-5.3716,-5.3818,-5.3899,-5.3935,-5.4016,-5.4069,-5.4063,-5.4091,-5.4087,-5.4095,-5.393,-5.3902,-5.4095,-5.4095,-5.4095,-5.4095,-5.4094,-5.4094,-5.3273,-5.3387,-5.3399,-5.3535,-5.3569,-5.3664,-5.3702,-5.3752,-5.3795,-5.3909,-5.3977,-5.4001,-5.4048,-5.4132,-5.4206,-5.4214,-5.4246,-5.4278,-5.4283,-5.4127,-5.4107,-5.4087,-5.4061,-5.4284,-5.4284,-5.4442,-5.4444,-5.4445]}]]